Regional Weather Roundup
Issued by NWS State College, PA

Home | Current Version | Previous Version | Text Only | Print | Product List | Glossary On
Versions: 1 2 3 4 5 6 7 8 9 10 11 12 13 14 15 16 17 18 19 20 21 22 23 24 25 26 27 28 29 30 31 32 33 34 35 36 37 38 39 40 41 42 43 44 45 46 47 48 49 50
000
ASUS41 KCTP 300210
RWRCTP

REGIONAL WEATHER ROUNDUP
NATIONAL WEATHER SERVICE STATE COLLEGE PA
1000 PM EDT FRI MAY 29 2015

Note: "fair" indicates few or no clouds below 12,000 feet with no
significant weather and/or obstructions to visibility.

* = STATION THAT DOES NOT REPORT PRECIPITATION /E.G. RAIN...SNOW...ETC/
    THUNDER OR FOG.

PAZ002>004-007>009-013>016-020>023-029>032-300300-
WESTERN PENNSYLVANIA

CITY           SKY/WX    TMP DP  RH WIND       PRES   REMARKS
ERIE           PTCLDY    75  63  66 S15       30.06S
MEADVILLE      LGT RAIN  71  63  75 VRB3      30.12R
FRANKLIN*      PTCLDY    68  61  77 S12       30.16R
NEW CASTLE     MOCLDY    73  68  84 CALM      30.13R
BEAVER COUNTY  NOT AVBL
BUTLER*        PTCLDY    66  63  88 S5        30.16S
PITTSBURGH INT PTCLDY    75  64  68 SE6       30.14R
PITTSBURGH     PTCLDY    71  62  73 S6        30.14S
INDIANA*       CLEAR     70  66  88 S6        30.21R
LATROBE        MOCLDY    73  64  73 SW9       30.17S
WASHINGTON CO* PTCLDY    70  63  78 CALM      30.16S
$$

PAZ004>006-010>012-017>019-024>028-033>037-041-042-045-046-049>053-300300-
CENTRAL PENNSYLVANIA

CITY           SKY/WX    TMP DP  RH WIND       PRES   REMARKS
BRADFORD       CLOUDY    66  63  90 SE6       30.18F
DUBOIS         CLOUDY    69  64  84 SE3       30.18S
CLEARFIELD     CLOUDY    69  66  90 CALM      30.20R
JOHNSTOWN      MOCLDY    68  63  84 S10       30.22S
ALTOONA        MOCLDY    72  64  76 SW6       30.21R
STATE COLLEGE  NOT AVBL
WILLIAMSPORT   MOCLDY    79  62  56 S8        30.15R
SELINSGROVE    MOCLDY    74  65  73 CALM      30.18R
FT INDIANTOWN  MOCLDY    76  67  73 S5        30.19R
CAPITAL CITY   MOCLDY    77  66  68 S13       30.18R
HARRISBURG     MOCLDY    78  67  68 S9        30.18R
YORK           MOCLDY    75  67  76 VRB3      30.20R
$$

PAZ038>040-043-044-047-048-054-055-060>062-067>071-300300-
EASTERN PENNSYLVANIA

CITY           SKY/WX    TMP DP  RH WIND       PRES   REMARKS
SCRANTON       MOCLDY    73  59  61 S5        30.20R
MOUNT POCONO   PTCLDY    68  58  70 SE8       30.23S
ALLENTOWN      PTCLDY    78  62  57 SE10      30.20R
QUAKERTOWN*    PTCLDY    75  66  73 S9        30.23R
READING        PTCLDY    76  65  68 S5        30.19R
LANCASTER      MOCLDY    76  66  71 S7        30.20R
COATESVILLE    PTCLDY    72  68  88 SE5       30.24R
POTTSTOWN      PTCLDY    74  67  78 S6        30.23R
BLUE BELL      PTCLDY    75  68  78 CALM      30.22R
DOYLESTOWN     PTCLDY    71  61  70 VRB5      30.23R
WILLOW GROVE   NOT AVBL
NORTH PHILA    CLEAR     73  59  61 SE7       30.25R
PHILADELPHIA   MOCLDY    74  64  71 SE3       30.23R
$$



USA.gov is the U.S. government's official web portal to all federal, state and local government web resources and services.